Weather History for Winner, SD

Change the Weather History Date:

Wednesday, November 21, 2012

  Actual Average Record
Temperature  
Mean Temperature 61 °F 33 °F  
Max Temperature 77 °F 43 °F 77 °F (2012)
Min Temperature 44 °F 23 °F 9 °F (2013)
Degree Days  
Heating Degree Days 4 32  
Month to date heating degree days 501 561  
Since 1 July heating degree days 1046 1159  
Cooling Degree Days 0 0  
Month to date cooling degree days 0 0  
Year to date cooling degree days 1470 916  
Growing Degree Days 10 (Base 50)    
Moisture  
Dew Point 26 °F    
Average Humidity 31    
Maximum Humidity 45    
Minimum Humidity 16    
Precipitation  
Precipitation 0.00 in 0.01 in 0.00 in (2014)
Month to date precipitation 0.01 0.48  
Year to date precipitation 10.16 21.11  
Sea Level Pressure  
Sea Level Pressure 29.77 in    
Wind  
Wind Speed 12 mph (SSW)    
Max Wind Speed 20 mph    
Max Gust Speed 25 mph    
Visibility 10 miles    
Events      
T = Trace of Precipitation, MM = Missing Value Source: NWS Daily Summary

Daily Weather History Graph

Daily Weather History Graph

Search for Another Location

Airport:

Trip Planner

Search our weather history database for the weather conditions in past years. The results will help you decide how hot, cold, wet, or windy it might be!

Date:

Astronomy

Nov. 21, 2012 Rise Set
Actual Time 7:41 AM CST 5:09 PM CST
Civil Twilight 7:09 AM CST 5:40 PM CST
Nautical Twilight 6:34 AM CST 6:15 PM CST
Astronomical Twilight 6:00 AM CST 6:49 PM CST
Moon 1:36 PM CST 12:51 AM CST
Length of Visible Light 10h 31m
Length of Day
9h 28m
First Quarter, 62% of the Moon is Illuminated
Nov 21
First Quarter
Nov 28
Full
Dec 6
Last Quarter
Dec 13
New
Dec 19
First Quarter

Hourly Weather History & Observations

Time (CST) Temp. Dew Point Humidity Pressure Visibility Wind Dir Wind Speed Gust Speed Precip Events Conditions
12:53 AM 50.0 °F 26.1 °F 39% 29.92 in 10.0 mi SSW 11.5 mph - N/A   Clear
1:53 AM 50.0 °F 26.1 °F 39% 29.91 in 10.0 mi SW 6.9 mph - N/A   Clear
2:53 AM 50.0 °F 27.0 °F 41% 29.90 in 10.0 mi SSW 8.1 mph - N/A   Clear
3:53 AM 50.0 °F 26.1 °F 39% 29.88 in 10.0 mi WSW 9.2 mph - N/A   Clear
4:53 AM 46.9 °F 26.1 °F 44% 29.89 in 10.0 mi West 5.8 mph - N/A   Clear
5:53 AM 46.9 °F 26.1 °F 44% 29.90 in 10.0 mi SSW 6.9 mph - N/A   Clear
6:53 AM 48.9 °F 27.0 °F 43% 29.87 in 10.0 mi SSW 10.4 mph - N/A   Clear
7:53 AM 50.0 °F 26.1 °F 39% 29.86 in 10.0 mi SSW 13.8 mph - N/A   Clear
8:53 AM 51.1 °F 26.1 °F 38% 29.84 in 10.0 mi SSW 16.1 mph - N/A   Clear
9:53 AM 57.0 °F 26.1 °F 30% 29.81 in 10.0 mi SSW 13.8 mph - N/A   Clear
10:53 AM 60.1 °F 27.0 °F 28% 29.82 in 10.0 mi SW 13.8 mph - N/A   Clear
11:53 AM 68.0 °F 28.0 °F 22% 29.77 in 10.0 mi SSW 13.8 mph - N/A   Clear
12:53 PM 73.0 °F 28.0 °F 19% 29.73 in 10.0 mi SSW 12.7 mph - N/A   Clear
1:53 PM 75.0 °F 27.0 °F 17% 29.70 in 10.0 mi SW 10.4 mph - N/A   Clear
2:53 PM 75.9 °F 26.1 °F 16% 29.68 in 10.0 mi SSW 16.1 mph 19.6 mph N/A   Clear
3:53 PM 72.0 °F 26.1 °F 18% 29.68 in 10.0 mi SSW 9.2 mph - N/A   Clear
4:53 PM 66.9 °F 26.1 °F 21% 29.67 in 10.0 mi SSW 9.2 mph - N/A   Clear
5:53 PM 63.0 °F 25.0 °F 24% 29.68 in 10.0 mi SSW 10.4 mph - N/A   Clear
6:53 PM 63.0 °F 23.0 °F 22% 29.68 in 10.0 mi SW 10.4 mph - N/A   Clear
7:53 PM 60.1 °F 23.0 °F 24% 29.67 in 10.0 mi SSW 11.5 mph - N/A   Clear
8:53 PM 57.9 °F 23.0 °F 26% 29.67 in 10.0 mi SSW 15.0 mph - N/A   Clear
9:53 PM 55.9 °F 23.0 °F 28% 29.67 in 10.0 mi SSW 13.8 mph - N/A   Clear
10:53 PM 55.9 °F 24.1 °F 29% 29.66 in 10.0 mi SSW 16.1 mph - N/A   Clear
11:53 PM 55.9 °F 24.1 °F 29% 29.65 in 10.0 mi SSW 13.8 mph - N/A   Clear